Weather History for Pascagoula, MS

Change the Weather History Date:

Tuesday, May 6, 2014

  Actual Average Record
Temperature  
Mean Temperature 68 °F -  
Max Temperature 80 °F 81 °F 93 °F (1970)
Min Temperature 57 °F 62 °F 45 °F (2011)
Cooling Degree Days 4    
Growing Degree Days 18 (Base 50)    
Moisture  
Dew Point 60 °F    
Average Humidity 78    
Maximum Humidity 100    
Minimum Humidity 47    
Precipitation  
Precipitation 0.00 in - - ()
Sea Level Pressure  
Sea Level Pressure 30.00 in    
Wind  
Wind Speed 2 mph (SSW)    
Max Wind Speed 9 mph    
Max Gust Speed 18 mph    
Visibility 8 miles    
Events      
Averages and records for this station are not official NWS values.
T = Trace of Precipitation, MM = Missing Value Source: NWS Daily Summary

Daily Weather History Graph

Daily Weather History Graph

Search for Another Location

Airport:

Trip Planner

Search our weather history database for the weather conditions in past years. The results will help you decide how hot, cold, wet, or windy it might be!

Date:

Astronomy

May. 06, 2014 Rise Set
Actual Time 6:06 AM CDT 7:35 PM CDT
Civil Twilight 5:40 AM CDT 8:01 PM CDT
Nautical Twilight 5:09 AM CDT 8:32 PM CDT
Astronomical Twilight 4:37 AM CDT 9:04 PM CDT
Moon 12:17 PM CDT (5/6) 12:58 AM CDT (5/6)
Length of Visible Light 14h 20m
Length of Day
13h 29m
Waxing Crescent, 46% of the Moon is Illuminated
May 6
Waxing Crescent
May 6
First Quarter
May 14
Full
May 21
Last Quarter
May 28
New

Hourly Weather History & Observations

Time (CDT) Temp. Heat Index Dew Point Humidity Pressure Visibility Wind Dir Wind Speed Gust Speed Precip Events Conditions
12:53 AM 60.1 °F - 59.0 °F 96% 30.00 in 6.0 mi Calm Calm - N/A   Clear
1:11 AM 60.1 °F - 59.0 °F 96% 29.99 in 0.8 mi Calm Calm - N/A   Clear
1:22 AM 59.0 °F - 59.0 °F 100% 29.99 in 2.0 mi Calm Calm - N/A   Clear
1:30 AM 59.0 °F - 59.0 °F 100% 29.98 in 4.0 mi Calm Calm - N/A   Clear
1:53 AM 59.0 °F - 57.9 °F 96% 29.99 in 4.0 mi Calm Calm - N/A   Clear
2:53 AM 57.9 °F - 57.0 °F 97% 29.97 in 6.0 mi Calm Calm - N/A   Clear
6:48 AM 57.2 °F - 57.2 °F 100% 30.00 in 4.0 mi Calm Calm - N/A   Clear
6:53 AM 57.0 °F - 57.0 °F 100% 30.01 in 6.0 mi Calm Calm - N/A   Clear
7:53 AM 66.0 °F - 63.0 °F 90% 30.03 in 10.0 mi Calm Calm - N/A   Clear
9:53 AM 75.9 °F - 61.0 °F 60% 30.05 in 10.0 mi Variable 6.9 mph - N/A   Clear
10:53 AM 75.9 °F - 60.1 °F 58% 30.06 in 10.0 mi South 6.9 mph - N/A   Clear
11:53 AM 77.0 °F - 59.0 °F 54% 30.05 in 10.0 mi Variable 5.8 mph - N/A   Clear
12:53 PM 79.0 °F - 59.0 °F 50% 30.03 in 10.0 mi Variable 5.8 mph - N/A   Clear
1:53 PM 80.1 °F 80.6 °F 57.9 °F 47% 30.01 in 10.0 mi SW 6.9 mph - N/A   Clear
2:53 PM 78.1 °F - 59.0 °F 52% 30.01 in 10.0 mi SSW 9.2 mph - N/A   Clear
3:53 PM 78.1 °F - 59.0 °F 52% 29.99 in 10.0 mi South 9.2 mph - N/A   Clear
4:53 PM 77.0 °F - 59.0 °F 54% 29.99 in 10.0 mi SW 5.8 mph 18.4 mph N/A   Clear
5:53 PM 75.9 °F - 60.1 °F 58% 29.98 in 10.0 mi SW 6.9 mph - N/A   Clear
6:53 PM 75.0 °F - 60.1 °F 60% 29.98 in 10.0 mi South 5.8 mph - N/A   Clear
7:53 PM 70.0 °F - 62.1 °F 76% 29.99 in 10.0 mi South 3.5 mph - N/A   Clear
8:53 PM 70.0 °F - 62.1 °F 76% 29.99 in 10.0 mi South 5.8 mph - N/A   Clear
9:53 PM 64.9 °F - 63.0 °F 93% 30.00 in 10.0 mi Calm Calm - N/A   Partly Cloudy
10:53 PM 63.0 °F - 62.1 °F 97% 30.01 in 9.0 mi Calm Calm - N/A   Clear
11:53 PM 62.1 °F - 62.1 °F 100% 30.00 in 9.0 mi Calm Calm - N/A   Clear